Weather History for KAPA - November, 2012

Change the Weather History Date:

Friday, November 9, 2012

  Actual Average (WUND) Record (WUND)
Temperature  
Mean Temperature 52 °F -  
Max Temperature 68 °F - - (-1)
Min Temperature 36 °F - - (-1)
Degree Days  
Heating Degree Days 13    
Month to date heating degree days 134  
Growing Degree Days 2 (Base 50)    
Moisture  
Dew Point 27 °F    
Average Humidity 47    
Maximum Humidity 76    
Minimum Humidity 17    
Precipitation  
Precipitation 0.00 in - - ()
Month to date precipitation 0.00  
Year to date precipitation 13.41  
Sea Level Pressure  
Sea Level Pressure 29.58 in    
Wind  
Wind Speed 11 mph (SW)    
Max Wind Speed 44 mph    
Max Gust Speed 53 mph    
Visibility 10 miles    
Events      
Averages and records for this station are not official NWS values.
T = Trace of Precipitation, MM = Missing Value Source: NWS Daily Summary

Daily Weather History Graph

Daily Weather History Graph

Search for Another Location

Airport or City:

Trip Planner

Search our weather history database for the weather conditions in past years. The results will help you decide how hot, cold, wet, or windy it might be!

Date:

Astronomy

Nov. 09, 2012 Rise Set
Actual Time 6:37 AM MST 4:48 PM MST
Civil Twilight 6:08 AM MST 5:17 PM MST
Nautical Twilight 5:36 AM MST 5:49 PM MST
Astronomical Twilight 5:05 AM MST 6:20 PM MST
Moon 1:40 AM MST (11/9) 2:02 PM MST (11/9)
Length of Visible Light 11h 08m
Length of Day
10h 11m
Waning Crescent, 22% of the Moon is Illuminated
Nov 9
Waning Crescent
Nov 13
New
Nov 20
First Quarter
Nov 28
Full
Dec 6
Last Quarter

Hourly Weather History & Observations

Time (MST) Temp. Windchill Dew Point Humidity Pressure Visibility Wind Dir Wind Speed Gust Speed Precip Events Conditions
12:53 AM 37.0 °F 32.4 °F 30.0 °F 76% 29.76 in 10.0 mi West 5.8 mph - N/A   Clear
1:53 AM 43.0 °F 38.2 °F 26.1 °F 51% 29.70 in 10.0 mi South 8.1 mph - N/A   Partly Cloudy
2:53 AM 46.9 °F - 19.9 °F 34% 29.66 in 10.0 mi SSW 9.2 mph - N/A   Partly Cloudy
3:53 AM 54.0 °F - 17.1 °F 23% 29.63 in 10.0 mi SSW 18.4 mph - N/A   Partly Cloudy
4:53 AM 54.0 °F - 17.1 °F 23% 29.64 in 10.0 mi SSW 19.6 mph - N/A   Partly Cloudy
5:53 AM 41.0 °F 37.1 °F 26.1 °F 55% 29.68 in 10.0 mi West 5.8 mph - N/A   Scattered Clouds
6:53 AM 39.0 °F 35.7 °F 28.9 °F 67% 29.71 in 10.0 mi ENE 4.6 mph - N/A   Scattered Clouds
7:53 AM 37.9 °F 31.5 °F 30.9 °F 76% 29.74 in 10.0 mi NW 9.2 mph - N/A   Scattered Clouds
8:53 AM 46.0 °F 43.1 °F 33.1 °F 61% 29.70 in 10.0 mi NNW 5.8 mph - N/A   Scattered Clouds
9:53 AM 51.1 °F - 32.0 °F 48% 29.67 in 10.0 mi North 4.6 mph - N/A   Scattered Clouds
10:53 AM 57.0 °F - 32.0 °F 39% 29.61 in 10.0 mi NNW 3.5 mph - N/A   Scattered Clouds
11:53 AM 62.1 °F - 30.9 °F 31% 29.57 in 10.0 mi NE 5.8 mph - N/A   Scattered Clouds
12:53 PM 66.9 °F - 24.1 °F 20% 29.52 in 10.0 mi South 11.5 mph 21.9 mph N/A   Scattered Clouds
1:53 PM 68.0 °F - 23.0 °F 18% 29.46 in 10.0 mi SSW 19.6 mph 27.6 mph N/A   Scattered Clouds
2:53 PM 66.9 °F - 21.9 °F 18% 29.45 in 10.0 mi SW 18.4 mph 29.9 mph N/A   Partly Cloudy
3:53 PM 64.9 °F - 23.0 °F 20% 29.43 in 10.0 mi SSW 21.9 mph 28.8 mph N/A   Partly Cloudy
4:53 PM 57.9 °F - 33.1 °F 39% 29.47 in 10.0 mi Calm Calm - N/A   Scattered Clouds
5:53 PM 52.0 °F - 28.9 °F 41% 29.55 in 10.0 mi SSE 5.8 mph - N/A   Scattered Clouds
6:53 PM 55.0 °F - 26.1 °F 33% 29.56 in 10.0 mi South 11.5 mph - N/A   Partly Cloudy
7:53 PM 54.0 °F - 27.0 °F 35% 29.56 in 10.0 mi SSW 15.0 mph 25.3 mph N/A   Partly Cloudy
8:53 PM 54.0 °F - 30.0 °F 40% 29.53 in 10.0 mi SSW 12.7 mph 27.6 mph N/A   Scattered Clouds
9:43 PM 53.6 °F - 30.2 °F 41% 29.58 in 10.0 mi SW 24.2 mph 40.3 mph N/A   Partly Cloudy
9:53 PM 54.0 °F - 30.0 °F 40% 29.47 in 10.0 mi SW 27.6 mph 39.1 mph N/A   Partly Cloudy
10:53 PM 54.0 °F - 27.0 °F 35% 29.41 in 10.0 mi WSW 31.1 mph 44.9 mph N/A   Clear
11:53 PM 52.0 °F - 27.0 °F 38% 29.43 in 10.0 mi SSW 20.7 mph 34.5 mph N/A   Clear